Date,TemperatureHighF,TemperatureAvgF,TemperatureLowF,DewpointHighF,DewpointAvgF,DewpointLowF,HumidityHigh,HumidityAvg,HumidityLow,PressureMaxIn,PressureMinIn,WindSpeedMaxMPH,WindSpeedAvgMPH,GustSpeedMaxMPH,PrecipitationSumIn
2013-4-1,49,36,29,43,25,12,93,64,40,0.00,40.00,11,6,17,1.14
2013-4-2,38,31,25,27,18,12,90,58,41,0.00,40.00,11,5,14,0.00
2013-4-3,34,30,22,27,19,14,82,61,46,0.00,40.00,11,4,14,0.00
2013-4-4,54,33,18,23,16,7,93,58,16,0.00,40.00,7,2,10,0.00
2013-4-8,72,68,61,55,47,41,66,49,40,0.00,40.00,16,8,22,0.00
2013-4-9,78,59,44,59,47,41,93,68,46,0.00,40.00,9,4,22,0.00
2013-4-10,57,46,36,55,44,36,99,94,76,0.00,40.00,7,2,14,0.00
2013-4-11,50,40,33,45,38,32,100,96,81,0.00,40.00,10,3,14,5.67
2013-4-12,58,46,39,55,42,32,98,87,71,0.00,40.00,10,4,14,4.53
2013-4-13,45,40,35,41,34,28,98,81,60,0.00,40.00,9,3,15,1.14
2013-4-14,49,42,32,37,32,28,90,71,54,0.00,40.00,4,1,12,0.00
2013-4-15,72,60,47,52,42,32,71,54,38,0.00,40.00,14,7,19,0.00
2013-4-16,67,57,48,61,50,46,97,81,64,0.00,40.00,12,5,17,2.28
2013-4-17,60,52,43,50,38,32,98,64,40,0.00,40.00,7,3,12,0.00
2013-4-18,84,70,51,59,54,41,80,60,33,0.00,40.00,16,8,22,0.00
2013-4-19,70,55,40,61,45,25,98,70,54,0.00,40.00,16,8,21,3.97
2013-4-20,43,37,28,34,28,21,94,71,45,0.00,40.00,13,6,19,5.67
2013-4-21,46,37,24,32,27,21,98,65,41,0.00,40.00,8,3,12,0.00
2013-4-22,63,49,31,34,29,23,91,48,29,0.00,40.00,10,4,14,0.00
2013-4-23,72,57,42,41,34,25,68,44,28,0.00,40.00,10,6,14,0.00
2013-4-24,65,49,35,54,41,32,100,82,36,0.00,40.00,11,6,17,10.77
2013-4-25,53,41,32,41,34,28,98,78,40,0.00,40.00,11,4,17,0.00
2013-4-26,58,44,28,41,32,27,99,66,31,0.00,40.00,6,2,17,0.00
2013-4-27,73,52,32,48,35,30,99,61,20,0.00,40.00,6,2,8,0.00
2013-4-28,62,56,45,54,44,-100,95,70,38,0.00,40.00,12,6,14,5.67
2013-4-29,67,56,51,59,52,46,98,90,75,0.00,40.00,9,3,14,1.14
2013-4-30,73,62,49,55,52,46,98,73,46,0.00,40.00,9,4,12,0.00